Hurlburt Field, FL

2:12 PM CST on January 20, 2017 (GMT -0600)
Hurlburt

Weather History for KHRT - December, 2013

Change the Weather History Date:

Friday, December 6, 2013

  Actual Average Record
Temperature  
Mean Temperature 73 °F -  
Max Temperature 77 °F 64 °F 77 °F (2013)
Min Temperature 69 °F 45 °F 30 °F (2006)
Cooling Degree Days 8    
Growing Degree Days 23 (Base 50)    
Moisture  
Dew Point 69 °F    
Average Humidity 90    
Maximum Humidity 94    
Minimum Humidity 78    
Precipitation  
Precipitation 0.00 in - - ()
Sea Level Pressure  
Sea Level Pressure 30.05 in    
Wind  
Wind Speed 9 mph (South)    
Max Wind Speed 18 mph    
Max Gust Speed 23 mph    
Visibility 9 miles    
Events Rain    
Averages and records for this station are not official NWS values.
T = Trace of Precipitation, MM = Missing Value Source: NWS Daily Summary

Daily Weather History Graph

Daily Weather History Graph

Search for Another Location

Airport or City:

Trip Planner

Search our weather history database for the weather conditions in past years. The results will help you decide how hot, cold, wet, or windy it might be!

Date:

Astronomy

Dec. 06, 2013 Rise Set
Actual Time 6:30 AM CST 4:45 PM CST
Civil Twilight 6:03 AM CST 5:12 PM CST
Nautical Twilight 5:33 AM CST 5:41 PM CST
Astronomical Twilight 5:04 AM CST 6:11 PM CST
Moon 9:44 AM CST (12/6) 9:05 PM CST (12/6)
Length of Visible Light 11h 08m
Length of Day
10h 15m
Waxing Crescent, 19% of the Moon is Illuminated
Dec 6
Waxing Crescent
Dec 9
First Quarter
Dec 17
Full
Dec 25
Last Quarter
Jan 1
New

Hourly Weather History & Observations

Time (CST) Temp. Dew Point Humidity Pressure Visibility Wind Dir Wind Speed Gust Speed Precip Events Conditions
12:23 AM 69.8 °F 68.0 °F 94% 30.05 in 7.0 mi South 5.8 mph - N/A   Scattered Clouds
12:58 AM 69.4 °F 67.1 °F 92% 30.05 in 8.0 mi South 4.6 mph - N/A   Scattered Clouds
1:13 AM 69.8 °F 66.2 °F 88% 30.04 in 8.0 mi SSE 5.8 mph - N/A   Mostly Cloudy
1:18 AM 69.8 °F 68.0 °F 94% 30.03 in 8.0 mi South 5.8 mph - N/A   Scattered Clouds
1:43 AM 69.8 °F 66.2 °F 88% 30.03 in 8.0 mi South 5.8 mph - N/A   Mostly Cloudy
1:58 AM 69.1 °F 66.6 °F 92% 30.04 in 8.0 mi South 6.9 mph - N/A   Mostly Cloudy
2:03 AM 69.8 °F 66.2 °F 88% 30.03 in 8.0 mi South 8.1 mph - N/A   Overcast
2:08 AM 69.8 °F 66.2 °F 88% 30.02 in 9.0 mi South 8.1 mph - N/A   Overcast
2:13 AM 69.8 °F 66.2 °F 88% 30.02 in 9.0 mi South 6.9 mph - N/A   Overcast
2:23 AM 69.8 °F 66.2 °F 88% 30.02 in 8.0 mi South 6.9 mph - N/A   Overcast
2:48 AM 69.8 °F 66.2 °F 88% 30.02 in 8.0 mi South 6.9 mph - N/A   Overcast
2:53 AM 69.8 °F 66.2 °F 88% 30.01 in 8.0 mi South 6.9 mph - N/A   Overcast
2:58 AM 69.1 °F 66.7 °F 92% 30.02 in 7.0 mi South 6.9 mph - N/A   Overcast
3:18 AM 69.8 °F 68.0 °F 94% 30.01 in 9.0 mi South 8.1 mph - N/A   Overcast
3:23 AM 69.8 °F 68.0 °F 94% 30.01 in 9.0 mi South 8.1 mph - N/A   Overcast
3:58 AM 70.0 °F 67.5 °F 92% 30.01 in 9.0 mi South 9.2 mph - N/A   Overcast
4:03 AM 69.8 °F 68.0 °F 94% 30.00 in 10.0 mi South 10.4 mph - N/A   Overcast
4:13 AM 69.8 °F 68.0 °F 94% 30.00 in 10.0 mi South 10.4 mph - N/A   Overcast
4:23 AM 69.8 °F 68.0 °F 94% 30.00 in 10.0 mi South 9.2 mph - N/A   Overcast
4:28 AM 69.8 °F 68.0 °F 94% 30.00 in 10.0 mi South 10.4 mph - N/A   Overcast
4:43 AM 69.8 °F 68.0 °F 94% 30.00 in 10.0 mi South 10.4 mph - N/A   Overcast
4:58 AM 70.2 °F 67.8 °F 92% 30.02 in 9.0 mi South 8.1 mph - N/A   Overcast
5:03 AM 69.8 °F 68.0 °F 94% 30.01 in 8.0 mi South 9.2 mph - N/A   Overcast
5:28 AM 69.8 °F 68.0 °F 94% 30.02 in 9.0 mi South 8.1 mph - N/A   Overcast
5:38 AM 69.8 °F 68.0 °F 94% 30.02 in 9.0 mi South 9.2 mph - N/A   Overcast
5:43 AM 69.8 °F 68.0 °F 94% 30.02 in 9.0 mi South 6.9 mph - N/A   Overcast
5:58 AM 70.2 °F 67.8 °F 92% 30.04 in 8.0 mi SSE 8.1 mph - N/A   Overcast
6:18 AM 69.8 °F 68.0 °F 94% 30.03 in 6.0 mi South 8.1 mph - N/A   Overcast
6:23 AM 69.8 °F 68.0 °F 94% 30.03 in 6.0 mi South 6.9 mph - N/A   Overcast
6:48 AM 69.8 °F 68.0 °F 94% 30.04 in 5.0 mi South 6.9 mph - N/A   Overcast
6:53 AM 69.8 °F 68.0 °F 94% 30.04 in 5.0 mi South 6.9 mph - N/A   Overcast
6:58 AM 69.8 °F 68.0 °F 94% 30.05 in 5.0 mi SSE 8.1 mph - N/A   Overcast
7:13 AM 69.8 °F 68.0 °F 94% 30.05 in 6.0 mi South 6.9 mph - N/A   Mostly Cloudy
7:58 AM 71.2 °F 68.9 °F 92% 30.07 in 8.0 mi South 8.1 mph - N/A   Mostly Cloudy
8:01 AM 71.6 °F 69.8 °F 94% 30.07 in 8.0 mi South 8.1 mph - N/A   Mostly Cloudy
8:06 AM 71.6 °F 69.8 °F 94% 30.07 in 9.0 mi South 8.1 mph - N/A   Mostly Cloudy
8:36 AM 71.6 °F 69.8 °F 94% 30.08 in 10.0 mi South 11.5 mph - N/A   Mostly Cloudy
8:41 AM 71.6 °F 69.8 °F 94% 30.08 in 10.0 mi South 12.7 mph - N/A   Scattered Clouds
8:58 AM 72.7 °F 70.2 °F 92% 30.09 in 10.0 mi South 11.5 mph - N/A   Scattered Clouds
9:18 AM 73.4 °F 71.6 °F 94% 30.09 in 10.0 mi South 11.5 mph - N/A Rain Light Rain
9:25 AM 75.2 °F 71.6 °F 89% 30.09 in 10.0 mi South 11.5 mph - N/A   Partly Cloudy
9:58 AM 76.3 °F 70.2 °F 81% 30.10 in 10.0 mi South 15.0 mph 20.7 mph N/A   Partly Cloudy
10:58 AM 77.2 °F 70.3 °F 79% 30.10 in 10.0 mi South 16.1 mph - N/A   Scattered Clouds
11:28 AM 77.0 °F 69.8 °F 78% 30.07 in 10.0 mi South 15.0 mph - N/A   Mostly Cloudy
11:55 AM 77.0 °F 69.8 °F 78% 30.06 in 10.0 mi South 16.1 mph - N/A   Scattered Clouds
11:58 AM 77.2 °F 70.2 °F 79% 30.07 in 10.0 mi South 18.4 mph - N/A   Mostly Cloudy
12:08 PM 77.0 °F 69.8 °F 78% 30.05 in 10.0 mi South 17.3 mph 23.0 mph N/A   Scattered Clouds
12:16 PM 77.0 °F 69.8 °F 78% 30.05 in 10.0 mi South 16.1 mph - N/A   Scattered Clouds
12:41 PM 77.0 °F 69.8 °F 78% 30.05 in 10.0 mi South 15.0 mph - N/A   Partly Cloudy
12:56 PM 77.0 °F 69.8 °F 78% 30.05 in 10.0 mi South 16.1 mph - N/A   Scattered Clouds
12:58 PM 77.4 °F 70.2 °F 78% 30.06 in 10.0 mi South 16.1 mph - N/A   Partly Cloudy
1:55 PM 77.0 °F 69.8 °F 78% 30.05 in 10.0 mi South 15.0 mph - N/A   Partly Cloudy
2:57 PM 75.2 °F 69.8 °F 83% 30.05 in 10.0 mi South 12.7 mph - N/A   Mostly Cloudy
3:58 PM 73.4 °F 69.8 °F 88% 30.05 in 10.0 mi South 11.5 mph - N/A   Mostly Cloudy
4:19 PM 73.4 °F 69.8 °F 88% 30.05 in 10.0 mi South 11.5 mph - N/A   Mostly Cloudy
4:41 PM 71.6 °F 69.8 °F 94% 30.05 in 10.0 mi South 10.4 mph - N/A   Mostly Cloudy
4:57 PM 71.6 °F 69.8 °F 94% 30.06 in 10.0 mi South 10.4 mph - N/A   Mostly Cloudy
5:44 PM 71.6 °F 69.8 °F 94% 30.06 in 10.0 mi South 10.4 mph - N/A   Mostly Cloudy
5:55 PM 71.6 °F 69.8 °F 94% 30.07 in 10.0 mi South 9.2 mph - N/A   Mostly Cloudy
6:58 PM 71.6 °F 69.8 °F 94% 30.07 in 10.0 mi South 10.4 mph - N/A   Mostly Cloudy
7:59 PM 71.6 °F 69.8 °F 94% 30.08 in 10.0 mi South 9.2 mph - N/A   Mostly Cloudy
8:56 PM 71.6 °F 69.8 °F 94% 30.08 in 10.0 mi South 10.4 mph - N/A   Mostly Cloudy
9:58 PM 71.6 °F 69.8 °F 94% 30.11 in 10.0 mi South 8.1 mph - N/A   Overcast
10:58 PM 72.1 °F 69.8 °F 92% 30.11 in 10.0 mi SSW 5.8 mph - N/A   Overcast
11:03 PM 71.6 °F 69.8 °F 94% 30.10 in 9.0 mi South 6.9 mph - N/A   Overcast
11:13 PM 71.6 °F 69.8 °F 94% 30.10 in 8.0 mi South 5.8 mph - N/A   Overcast
11:23 PM 71.6 °F 69.8 °F 94% 30.10 in 8.0 mi South 8.1 mph - N/A   Overcast
11:58 PM 72.0 °F 69.6 °F 92% 30.11 in 7.0 mi SSW 6.9 mph - N/A   Overcast